Location: Heiligenberg
(48.5381°N, 7.3897°E)
Time: 20:12:05
(UTC+00:00)

Cosmos 1461 - Pass Details

Date: 26 May 2022
Orbit: 516 x 638 km, 65.0° (Epoch: 02 July)

Event Time Altitude Azimuth Distance (km) Brightness Sun altitude
Rises 00:01:59 0° 316° (NW) 2,734 6.9 -19.9°
Reaches altitude 10° 00:04:14 10° 309° (NW) 1,856 5.9 -19.9°
Maximum altitude 00:08:09 41° 240° (WSW) 843 3.4 -19.8°
Enters shadow 00:08:11 41° 239° (WSW) 843 3.4 -19.8°
